User: anonymous   Login
Location: Unspecified
(0.0000°N, 0.0000°E)
Time: 02:57:39
(UTC+02:00)
Language:

Cosmos 1953 Rocket - Orbit

View from above orbital plane
View from above orbital plane
View from above satellite
View from above satellite

Ground track
Ground track

The orbit data is extracted from the following two-line orbital elements,

1 19211U 88050B   15186.03424163  .00000254  00000-0  28419-4 0  9998
2 19211 082.5267 149.3186 0020717 309.9919 094.7785 14.82766626461105
Epoch (UTC): 05 July 2015 00:49:18
Eccentricity: 0.0020717
inclination: 82.5267°
perigee height: 606 km
apogee height: 635 km
right ascension of ascending node: 149.3186°
argument of perigee: 309.9919°
revolutions per day: 14.82766626
mean anomaly at epoch: 94.7785°
orbit number at epoch: 46110

The dashed part of the orbit path shows where the satellite is in the earth's shadow,  

DLR